TimeEST,TemperatureF,Dew PointF,Humidity,Sea Level PressureIn,VisibilityMPH,Wind Direction,Wind SpeedMPH,Gust SpeedMPH,PrecipitationIn,Events,Conditions,WindDirDegrees,DateUTC
12:53 AM,36.0,33.1,89,30.03,4.0,Calm,Calm,-,N/A,,Clear,0,2013-12-04 05:53:00
1:53 AM,39.9,34.0,79,30.01,6.0,East,6.9,-,N/A,,Haze,90,2013-12-04 06:53:00
2:53 AM,35.1,33.1,92,30.05,4.0,Calm,Calm,-,N/A,,Clear,0,2013-12-04 07:53:00
3:53 AM,36.0,33.1,89,30.05,4.0,Calm,Calm,-,N/A,,Clear,0,2013-12-04 08:53:00
4:53 AM,33.1,30.9,92,30.03,3.0,NNW,5.8,-,N/A,,Clear,330,2013-12-04 09:53:00
5:49 AM,32.0,30.2,93,30.00,2.5,NW,5.8,-,N/A,,Clear,320,2013-12-04 10:49:00
5:53 AM,32.0,30.0,92,30.05,2.5,NW,5.8,-,N/A,,Clear,320,2013-12-04 10:53:00
6:15 AM,33.1,32.0,96,30.01,3.0,Calm,Calm,-,N/A,,Clear,0,2013-12-04 11:15:00
6:53 AM,33.1,32.0,96,30.06,2.5,Calm,Calm,-,N/A,,Scattered Clouds,0,2013-12-04 11:53:00
7:53 AM,34.0,32.0,92,30.07,2.5,WNW,5.8,-,N/A,,Clear,300,2013-12-04 12:53:00
8:06 AM,34.0,32.0,92,30.04,1.5,NW,9.2,-,N/A,,Clear,310,2013-12-04 13:06:00
8:45 AM,36.0,34.0,93,30.05,2.0,North,4.6,-,N/A,,Clear,350,2013-12-04 13:45:00
8:53 AM,37.0,34.0,89,30.10,2.5,North,4.6,-,N/A,,Clear,10,2013-12-04 13:53:00
9:44 AM,39.0,35.1,86,30.08,3.0,East,3.5,-,N/A,,Partly Cloudy,100,2013-12-04 14:44:00
9:53 AM,39.9,36.0,86,30.13,3.0,Calm,Calm,-,N/A,,Scattered Clouds,0,2013-12-04 14:53:00
10:53 AM,46.0,37.9,73,30.12,4.0,Calm,Calm,-,N/A,,Haze,0,2013-12-04 15:53:00
11:53 AM,50.0,39.0,66,30.09,5.0,Calm,Calm,-,N/A,,Haze,0,2013-12-04 16:53:00
12:53 PM,52.0,41.0,66,30.06,5.0,WNW,4.6,-,N/A,,Haze,290,2013-12-04 17:53:00
1:53 PM,54.0,41.0,62,30.04,5.0,Calm,Calm,-,N/A,,Haze,0,2013-12-04 18:53:00
2:53 PM,55.0,42.1,62,30.03,5.0,Calm,Calm,-,N/A,,Haze,0,2013-12-04 19:53:00
3:53 PM,54.0,42.1,64,30.03,5.0,Calm,Calm,-,N/A,,Haze,0,2013-12-04 20:53:00
4:53 PM,53.1,43.0,69,30.06,6.0,Calm,Calm,-,N/A,,Haze,0,2013-12-04 21:53:00
5:53 PM,48.9,42.1,77,30.07,6.0,ENE,4.6,-,N/A,,Haze,70,2013-12-04 22:53:00
6:53 PM,48.9,43.0,80,30.08,6.0,ENE,4.6,-,N/A,,Haze,70,2013-12-04 23:53:00
7:53 PM,48.9,43.0,80,30.08,5.0,East,5.8,-,N/A,,Haze,80,2013-12-05 00:53:00
8:53 PM,45.0,41.0,86,30.09,4.0,WNW,4.6,-,N/A,,Clear,300,2013-12-05 01:53:00
9:53 PM,44.1,39.9,85,30.09,4.0,Calm,Calm,-,N/A,,Partly Cloudy,0,2013-12-05 02:53:00
10:53 PM,44.1,39.9,85,30.09,4.0,Calm,Calm,-,N/A,,Clear,0,2013-12-05 03:53:00
11:53 PM,46.9,45.0,93,30.08,4.0,Calm,Calm,-,N/A,,Mostly Cloudy,0,2013-12-05 04:53:00